Weather in Ashmyany

Belarus     54°25′30″N   25°56′14″E
temp.,
°C
wind,
m/s
gust,
m/s
humid.,
%
clouds,
%
prec.,
mm/h
press.,
hPa
HPBL,
m
8 march, mon
mon800:00−4wnw5117761 0.1 1006751
03:00−4wnw7137757 0.1 1007779
06:00−4nw7108787 0.4 1007938
09:00−5nnw7108193 0.7 10091070
12:00−4nnw6866100 0.1 10121209
15:00−3nw696799 0.2 10131266
18:00−3nnw6873100 0.1 10151099
21:00−5nnw388397 0.1 1017422
9 march, tue
tue900:00−5nnw3683100 0.1 1018392
03:00−7nw249189 0.1 1020149
06:00−8nw25950 0.0 1021177
09:00−7nnw249012 0.0 1023262
12:00−4nnw236135 0.0 1023781
15:00−2wnw235224 0.0 10231153
18:00−2w236034 0.0 1022318
21:00−5sw468348 0.0 1024182
10 march, wed
wed1000:00−5sw368294 0.0 1025169
03:00−6sw478380 0.0 1025180
06:00−7sw478116 0.0 1024183
09:00−7sw468114 0.0 1025195
12:00−3sw466945 0.0 1025477
15:00−1sw456360 0.0 1025806
18:00−2sw347089 0.0 1024619
21:00−4ssw358056 0.0 1025145
11 march, thu
thu1100:00−5ssw368090 0.0 1025164
03:00−6ssw368380 0.0 1026180
06:00−6s358492 0.0 1025144
09:00−6s467771 0.0 1025197
12:00−2s57610 0.0 1024601
15:000s69580 0.0 10221306
18:00−1sse6966100 0.0 10201122
21:00−2sse71380100 0.0 1018842
12 march, fri
fri1200:00−2sse81586100 0.0 1016826
03:00−2sse91677100 0.0 1012780
06:00−3sse91789100 0.1 1009728
09:00−2s101793100 1.4 1006758
12:00−1s91492100 1.1 1005550
15:00+1ssw61198100 2.8 1005406
18:00+2wsw41098100 0.8 1006384
21:00+1w51198100 2.6 1008465